When you browse on this site, cookies collect data to enhance your experience and personalize the content and advertising you see.
Visit our Privacy Policy to learn more. By continuing to use the site, you agree to this use of cookies and data.
  • En España
  • Lista de países
  • Para 7 días
  • Temperatura del agua
  • Mapa Satelital
  • El tiempo en el mapa
  • Informadores
  • user-avatar
    Iniciar sesión

    Tiempo cada hora Algiers

    Hoy, 19 Diciembre, Miércoles

    Tiempo Temperatura Precipitaciones Viento Presión Humedad
    00:00 +12°C° 0 mm 3 mps 755 mmHg 50%
    01:00 +12°C° 0 mm 3 mps 754 mmHg 51%
    02:00 +12°C° 0 mm 3 mps 754 mmHg 51%
    03:00 +12°C° 0 mm 3 mps 754 mmHg 52%
    04:00 +11°C° 0 mm 3 mps 754 mmHg 53%
    05:00 +11°C° 0 mm 3 mps 754 mmHg 54%
    06:00 +11°C° 0 mm 3 mps 755 mmHg 55%
    07:00 +12°C° 0 mm 3 mps 755 mmHg 55%
    08:00 +13°C° 0 mm 3 mps 755 mmHg 55%
    09:00 +15°C° 0 mm 2 mps 755 mmHg 55%
    10:00 +17°C° 0 mm 2 mps 755 mmHg 51%
    11:00 +18°C° 0 mm 2 mps 755 mmHg 47%
    12:00 +20°C° 0 mm 2 mps 755 mmHg 43%
    13:00 +20°C° 0 mm 2 mps 755 mmHg 44%
    14:00 +20°C° 0 mm 2 mps 754 mmHg 45%
    15:00 +21°C° 0 mm 2 mps 754 mmHg 46%
    16:00 +19°C° 0 mm 2 mps 754 mmHg 51%
    17:00 +17°C° 0 mm 2 mps 754 mmHg 56%
    18:00 +15°C° 0 mm 1 mps 754 mmHg 62%
    19:00 +15°C° 0 mm 1 mps 755 mmHg 62%
    20:00 +14°C° 0 mm 1 mps 755 mmHg 62%
    21:00 +14°C° 0 mm 1 mps 755 mmHg 62%
    22:00 +14°C° 0 mm 2 mps 755 mmHg 62%
    23:00 +14°C° 0 mm 2 mps 755 mmHg 61%

    Mañana, 20 Diciembre, Jueves

    Tiempo Temperatura Precipitaciones Viento Presión Humedad
    00:00 +14°C° 0 mm 2 mps 755 mmHg 61%
    01:00 +14°C° 0 mm 2 mps 755 mmHg 60%
    02:00 +14°C° 0 mm 2 mps 755 mmHg 60%
    03:00 +14°C° 0 mm 2 mps 755 mmHg 59%
    04:00 +13°C° 0 mm 2 mps 755 mmHg 61%
    05:00 +13°C° 0 mm 2 mps 755 mmHg 62%
    06:00 +13°C° 0 mm 2 mps 755 mmHg 63%
    07:00 +14°C° 0 mm 2 mps 756 mmHg 62%
    08:00 +15°C° 0 mm 2 mps 756 mmHg 61%
    09:00 +16°C° 0 mm 2 mps 756 mmHg 60%
    10:00 +17°C° 0 mm 2 mps 756 mmHg 60%
    11:00 +17°C° 0 mm 2 mps 756 mmHg 61%
    12:00 +18°C° 0 mm 2 mps 756 mmHg 61%
    13:00 +18°C° 0.2 mm 2 mps 756 mmHg 65%
    14:00 +17°C° 0.2 mm 2 mps 756 mmHg 69%
    15:00 +17°C° 0.2 mm 2 mps 756 mmHg 72%
    16:00 +16°C° 0.2 mm 2 mps 756 mmHg 77%
    17:00 +16°C° 0.2 mm 2 mps 757 mmHg 82%
    18:00 +15°C° 0.2 mm 2 mps 757 mmHg 86%
    19:00 +14°C° 0.1 mm 2 mps 758 mmHg 87%
    20:00 +14°C° 0.1 mm 1 mps 758 mmHg 88%
    21:00 +13°C° 0.1 mm 1 mps 758 mmHg 89%
    22:00 +13°C° 0 mm 1 mps 759 mmHg 90%
    23:00 +13°C° 0 mm 1 mps 759 mmHg 90%

    Pasado mañana, 21 Diciembre, Viernes

    Tiempo Temperatura Precipitaciones Viento Presión Humedad
    00:00 +12°C° 0 mm 1 mps 759 mmHg 90%
    01:00 +12°C° 0 mm 1 mps 759 mmHg 90%
    02:00 +12°C° 0 mm 1 mps 759 mmHg 90%
    03:00 +12°C° 0 mm 1 mps 759 mmHg 90%
    04:00 +11°C° 0 mm 1 mps 759 mmHg 90%
    05:00 +11°C° 0 mm 1 mps 759 mmHg 89%
    06:00 +11°C° 0 mm 1 mps 760 mmHg 89%
    07:00 +12°C° 0 mm 1 mps 760 mmHg 84%
    08:00 +13°C° 0 mm 1 mps 760 mmHg 79%
    09:00 +14°C° 0 mm 1 mps 761 mmHg 75%
    10:00 +15°C° 0 mm 1 mps 761 mmHg 68%
    11:00 +16°C° 0 mm 1 mps 760 mmHg 60%
    12:00 +17°C° 0 mm 0 mps 760 mmHg 53%
    13:00 +19°C° 0 mm 1 mps 760 mmHg 54%
    14:00 +19°C° 0 mm 1 mps 760 mmHg 54%
    15:00 +19°C° 0 mm 1 mps 759 mmHg 55%
    16:00 +16°C° 0 mm 1 mps 760 mmHg 63%
    17:00 +15°C° 0 mm 1 mps 760 mmHg 71%
    18:00 +13°C° 0 mm 1 mps 760 mmHg 79%
    19:00 +13°C° 0 mm 1 mps 760 mmHg 77%
    20:00 +13°C° 0 mm 1 mps 760 mmHg 76%
    21:00 +13°C° 0 mm 1 mps 760 mmHg 74%
    22:00 +13°C° 0 mm 1 mps 760 mmHg 71%
    23:00 +13°C° 0 mm 2 mps 760 mmHg 69%

    22 Diciembre, Sábado

    Tiempo Temperatura Precipitaciones Viento Presión Humedad
    00:00 +13°C° 0 mm 2 mps 760 mmHg 66%
    01:00 +13°C° 0 mm 2 mps 760 mmHg 66%
    02:00 +13°C° 0 mm 2 mps 759 mmHg 65%
    03:00 +12°C° 0 mm 2 mps 759 mmHg 64%
    04:00 +12°C° 0 mm 2 mps 759 mmHg 65%
    05:00 +12°C° 0 mm 2 mps 759 mmHg 66%
    06:00 +12°C° 0 mm 2 mps 759 mmHg 67%
    07:00 +13°C° 0 mm 2 mps 760 mmHg 66%
    08:00 +14°C° 0 mm 2 mps 760 mmHg 64%
    09:00 +16°C° 0 mm 2 mps 760 mmHg 63%
    10:00 +17°C° 0 mm 2 mps 760 mmHg 57%
    11:00 +18°C° 0 mm 2 mps 759 mmHg 51%
    12:00 +21°C° 0 mm 1 mps 759 mmHg 45%
    13:00 +21°C° 0 mm 1 mps 759 mmHg 45%
    14:00 +21°C° 0 mm 1 mps 758 mmHg 44%
    15:00 +21°C° 0 mm 1 mps 758 mmHg 44%
    16:00 +20°C° 0 mm 1 mps 758 mmHg 48%
    17:00 +18°C° 0 mm 1 mps 758 mmHg 53%
    18:00 +15°C° 0 mm 1 mps 758 mmHg 57%
    19:00 +15°C° 0 mm 2 mps 759 mmHg 56%
    20:00 +15°C° 0 mm 2 mps 759 mmHg 55%
    21:00 +14°C° 0 mm 2 mps 759 mmHg 54%
    22:00 +14°C° 0 mm 2 mps 759 mmHg 53%
    23:00 +14°C° 0 mm 2 mps 758 mmHg 51%

    23 Diciembre, Domingo

    Tiempo Temperatura Precipitaciones Viento Presión Humedad
    00:00 +14°C° 0 mm 2 mps 758 mmHg 50%
    01:00 +14°C° 0 mm 2 mps 758 mmHg 51%
    02:00 +13°C° 0 mm 2 mps 758 mmHg 51%
    03:00 +13°C° 0 mm 2 mps 758 mmHg 51%
    04:00 +13°C° 0 mm 2 mps 758 mmHg 51%
    05:00 +13°C° 0 mm 2 mps 758 mmHg 51%
    06:00 +13°C° 0 mm 2 mps 758 mmHg 52%
    07:00 +14°C° 0 mm 2 mps 758 mmHg 51%
    08:00 +16°C° 0 mm 2 mps 758 mmHg 50%
    09:00 +17°C° 0 mm 2 mps 759 mmHg 49%
    10:00 +19°C° 0 mm 1 mps 758 mmHg 44%
    11:00 +21°C° 0 mm 1 mps 758 mmHg 40%
    12:00 +20°C° 0 mm 0 mps 758 mmHg 35%
    13:00 +22°C° 0 mm 1 mps 758 mmHg 37%
    14:00 +22°C° 0 mm 1 mps 757 mmHg 38%
    15:00 +22°C° 0 mm 1 mps 757 mmHg 40%
    16:00 +20°C° 0 mm 1 mps 757 mmHg 44%
    17:00 +19°C° 0 mm 1 mps 757 mmHg 47%
    18:00 +16°C° 0 mm 1 mps 757 mmHg 50%
    19:00 +16°C° 0 mm 2 mps 757 mmHg 49%
    20:00 +15°C° 0 mm 2 mps 758 mmHg 48%
    21:00 +15°C° 0 mm 2 mps 758 mmHg 47%
    22:00 +15°C° 0 mm 2 mps 758 mmHg 46%
    23:00 +15°C° 0 mm 2 mps 758 mmHg 44%

    24 Diciembre, Lunes

    Tiempo Temperatura Precipitaciones Viento Presión Humedad
    00:00 +15°C° 0 mm 2 mps 757 mmHg 43%
    01:00 +14°C° 0 mm 2 mps 757 mmHg 42%
    02:00 +14°C° 0 mm 2 mps 757 mmHg 41%
    03:00 +14°C° 0 mm 1 mps 757 mmHg 40%
    04:00 +14°C° 0 mm 2 mps 757 mmHg 39%
    05:00 +14°C° 0 mm 2 mps 757 mmHg 39%
    06:00 +14°C° 0 mm 2 mps 757 mmHg 38%
    07:00 +15°C° 0 mm 2 mps 757 mmHg 39%
    08:00 +16°C° 0 mm 2 mps 757 mmHg 40%
    09:00 +17°C° 0 mm 2 mps 757 mmHg 41%
    10:00 +19°C° 0 mm 2 mps 757 mmHg 37%
    11:00 +22°C° 0 mm 1 mps 757 mmHg 32%
    12:00 +23°C° 0 mm 1 mps 756 mmHg 28%
    13:00 +23°C° 0 mm 1 mps 756 mmHg 30%
    14:00 +23°C° 0 mm 2 mps 756 mmHg 33%
    15:00 +23°C° 0 mm 2 mps 755 mmHg 35%
    16:00 +20°C° 0 mm 2 mps 755 mmHg 37%
    17:00 +18°C° 0 mm 2 mps 756 mmHg 38%
    18:00 +17°C° 0 mm 3 mps 756 mmHg 40%
    19:00 +16°C° 0 mm 3 mps 756 mmHg 38%
    20:00 +16°C° 0 mm 3 mps 756 mmHg 36%
    21:00 +16°C° 0 mm 3 mps 756 mmHg 34%
    22:00 +14°C° 0 mm 3 mps 756 mmHg 34%
    23:00 +14°C° 0 mm 3 mps 755 mmHg 34%
    Mostrar más